Tracking 35237 objects as of 5-Sep-2026
HD Live streaming from Space Station
objects crossing your sky now

DELTA 1 DEB

Track DELTA 1 DEB now!
10-day predictions


NORAD ID: 5975
Int'l Code: 1970-021C
Launch date: March 20, 1970
Source: United States (US)
Launch site: AIR FORCE EASTERN TEST RANGE (AFETR)

Note: This is SATELLITE DEBRIS
Your satellite tracking list
Your tracking list is empty




NASA's NSSDC Master Catalog

Two Line Element Set (TLE):
1 05975U 70021C   26247.05296136  .00002801  00000-0  95727-3 0  9993
2 05975  25.3688 187.3916 6514985  91.3246 338.4082  3.27698341375509
Source of the keplerian elements: AFSPC